Location: Agendoh
(31.0664°N, 8.9343°W)
Time: 22:58:30
(UTC+00:00)

Lacrosse 5 - Pass Details

Date: 27 June 2022
Orbit: 714 x 724 km, 57.0° (Epoch: 09 March)

Event Time Altitude Azimuth Distance (km) Brightness Sun altitude
Rises 00:02:09 0° 326° (NW) 3,136 6.0 -34.9°
Reaches altitude 10° 00:04:35 10° 330° (NNW) 2,211 5.1 -35.0°
Enters shadow 00:07:06 29° 340° (NNW) 1,319 3.7 -35.1°
